Location: Hlohovi?ky
(49.8934°N, 13.6739°E)
Time: 00:23:02
(UTC+00:00)

ATLAS 3B R/B - Pass Details

Date: 19 May 2025
Orbit: 935 x 1258 km, 63.8° (Epoch: 15 June)

Event Time Altitude Azimuth Distance (km) Brightness Sun altitude
Exits shadow 23:17:17 15° 234° (SW) 2,749 4.5 -20.0°
Maximum altitude 23:23:45 71° 317° (NW) 1,290 3.2 -20.0°
Drops below altitude 10° 23:31:38 10° 41° (NE) 3,244 6.0 -19.8°
Sets 23:34:30 0° 44° (NE) 4,220 6.7 -19.7°
